AO-07 1 07530U 74089B 18081.51947380 -.00000029 00000-0 99911-4 0 9993 2 07530 101.6770 050.1750 0012266 141.5643 327.7135 12.53631598983504 UO-11 1 14781U 84021B 18081.70324244 .00000084 00000-0 16495-4 0 9991 2 14781 97.6605 121.5570 0008747 17.0073 343.1433 14.82988924831627 LO-19 1 20442U 90005G 18081.41539961 .00000011 00000-0 20086-4 0 9994 2 20442 098.6033 020.4745 0012685 049.9776 310.2519 14.32889770471405 HUBBLE 1 20580U 90037B 18081.15540104 .00000576 00000-0 24412-4 0 9997 2 20580 028.4702 330.4228 0002532 283.6974 210.1163 15.09001442332225 MET-2/21 1 22782U 93055A 18081.62285824 -.00000004 00000-0 -17424-4 0 9996 2 22782 082.5512 162.6323 0022376 013.4816 093.8578 13.83809221239935 AO-27 1 22825U 93061C 18081.52996130 .00000018 00000-0 24689-4 0 9993 2 22825 098.8538 056.1175 0007468 235.5739 124.4737 14.30024817276919 IO-26 1 22826U 93061D 18081.84664304 .00000008 00000-0 20646-4 0 9992 2 22826 98.8479 56.4881 0008122 223.5265 136.5276 14.30355828277417 FO-29 1 24278U 96046B 18081.56611846 -.00000016 00000-0 21944-4 0 9995 2 24278 098.5255 292.2167 0349993 335.8277 022.6776 13.53082364066276 NOAA-15 1 25338U 98030A 18081.59763556 .00000013 00000-0 24277-4 0 9995 2 25338 098.7752 097.9489 0011553 116.8064 243.4298 14.25842752032421 GO-32 1 25397U 98043D 18081.37375002 -.00000003 00000-0 17648-4 0 9999 2 25397 098.6423 023.2852 0000181 307.4223 052.6939 14.23641851023153 ISS 1 25544U 98067A 18081.92201431 .00001774 00000-0 34015-4 0 9996 2 25544 51.6412 88.7631 0001711 231.5847 205.3669 15.54128600105104 NO-44 1 26931U 01043C 18081.65865769 -.00000022 00000-0 23555-4 0 9998 2 26931 67.0499 92.6792 0006630 282.9226 77.1135 14.30497911860174 SO-50 1 27607U 02058C 18081.86076091 .00000042 00000-0 26710-4 0 9998 2 27607 64.5571 353.9006 0055195 348.5189 11.4650 14.75431304820224 CO-55 1 27844U 03031E 18081.55888745 .00000058 00000-0 45907-4 0 9992 2 27844 098.6894 091.4842 0008640 261.2534 098.7665 14.22101046763840 CO-57 1 27848U 03031J 18081.84603577 .00000037 00000-0 36983-4 0 9997 2 27848 98.6981 92.1355 0008524 271.6394 88.3807 14.21706621763794 RS-22 1 27939U 03042A 18081.88497650 .00000143 00000-0 34145-4 0 9993 2 27939 97.9755 223.3192 0014162 65.4257 48.9206 14.66667660774161 NOAA-18 1 28654U 05018A 18081.60841520 -.00000002 00000-0 24218-4 0 9997 2 28654 099.1559 115.2554 0014397 014.9697 345.1897 14.12370122661461 CO-58 1 28895U 05043F 18081.85840843 .00000165 00000-0 40459-4 0 9990 2 28895 97.8957 236.8721 0016361 346.9942 13.0837 14.63521413661243 Falconsat-3 1 30776U 07006E 18081.47006136 .00003005 00000-0 90338-4 0 9996 2 30776 035.4357 098.6317 0003503 313.0216 047.0216 15.34113235610996 CO-65 1 32785U 08021C 18081.50843606 .00000288 00000-0 36968-4 0 9990 2 32785 097.5519 097.8070 0012264 332.1672 027.8887 14.88081191536211 AAUSAT2 1 32788U 08021F 18081.57302837 .00000713 00000-0 71515-4 0 9996 2 32788 097.5309 111.6521 0010255 280.0219 079.9844 14.94259969537144 DO-64 1 32789U 08021G 18081.60143616 .00001086 00000-0 78952-4 0 9995 2 32789 097.5225 138.5716 0011328 227.3707 132.6566 15.05840716538658 CO-66 1 32791U 08021J 18081.53655837 .00000497 00000-0 56313-4 0 9995 2 32791 97.5427 102.9902 0012158 311.5293 48.4882 14.90494573536602 RS-30 1 32953U 08025A 18081.84054261 .00000021 00000-0 77379-4 0 9995 2 32953 82.5006 66.3728 0020066 40.9151 319.3431 12.43082360446042 PRISM 1 33493U 09002B 18081.69474568 .00000495 00000-0 49564-4 0 9990 2 33493 98.1392 340.4316 0013691 242.8420 117.1396 14.96121815497410 NOAA-19 1 33591U 09005A 18081.56531998 .00000112 00000-0 85859-4 0 9992 2 33591 099.1336 057.9128 0013453 206.5592 153.4890 14.12263243469682 TISAT-1 1 36799U 10035E 18081.32943108 .00000595 00000-0 66591-4 0 9991 2 36799 98.0918 215.3200 0013481 130.4553 229.7841 14.90728393417216 JUGNU 1 37839U 11058B 18081.46147201 .00000341 00000-0 39910-4 0 9992 2 37839 19.9605 203.1352 0019093 10.9336 62.1622 14.12613208333097 SRMSAT 1 37841U 11058D 18081.49109948 .00000320 00000-0 30507-4 0 9994 2 37841 019.9715 250.3727 0011844 258.7103 141.1696 14.10601305332532 AO-71 1 37854U 11061E 18081.60756126 .00001999 00000-0 11186-3 0 9995 2 37854 101.7117 102.2182 0164216 330.2268 028.9675 15.05218699348353 HRBE 1 37855U 11061F 18081.60901141 .00001746 00000-0 97071-4 0 9993 2 37855 101.7248 099.8353 0177212 338.4442 020.9372 15.04193167348160 ALMASAT-1 1 38078U 12006B 18081.82897071 .00019211 38906-5 17755-3 0 9998 2 38078 69.4332 94.8442 0260947 236.7518 181.3428 15.35914471327375 HORYU-2 1 38340U 12025D 18081.61350091 .00000229 00000-0 41726-4 0 9998 2 38340 098.3727 100.3361 0012717 123.4446 236.7980 14.75515975303934 RS-40 1 38735U 12041C 18081.55814600 .00000010 00000-0 36213-6 0 9993 2 38735 082.4773 150.6394 0017997 140.6406 219.5985 12.42576730256246 BEESAT-3 1 39134U 13015E 18081.82462191 .00001632 00000-0 87020-4 0 9994 2 39134 64.8643 46.2244 0021263 221.1968 138.7555 15.18920897271787 BEESAT-2 1 39136U 13015G 18081.44776096 .00001526 00000-0 88707-4 0 9991 2 39136 064.8691 062.2380 0027039 245.9782 113.8513 15.15956706271059 ZACUBE-1 1 39417U 13066B 18081.55856063 .00000290 00000-0 42858-4 0 9998 2 39417 097.5969 114.7809 0060659 079.3486 281.4551 14.80894504233977 TRITON-1 1 39427U 13066M 18081.57871758 .00000182 00000-0 36972-4 0 9999 2 39427 097.6395 083.2588 0114231 176.1207 184.0912 14.67624684231689 GOMX-1 1 39430U 13066Q 18081.82610998 .00000193 00000-0 44326-4 0 9992 2 39430 97.6902 64.9616 0150274 242.9404 115.6395 14.59041476230556 LO-74 1 39440U 13066AA 18081.61782589 .00000263 00000-0 43458-4 0 9999 2 39440 097.6073 101.9736 0081978 116.2696 244.6967 14.75629131231952 AO-73 1 39444U 13066AE 18081.59969165 .00000349 00000-0 49369-4 0 9999 2 39444 097.5981 116.2351 0059773 075.0616 285.7206 14.81662626232245 SPROUT 1 39770U 14029E 18081.84399847 .00000939 00000-0 11164-3 0 9999 2 39770 97.8717 183.6425 0010462 127.0816 233.1357 14.86729005207537 DUCHIFAT-1 1 40021U 14033M 18081.57841407 .00000613 00000-0 69042-4 0 9997 2 40021 097.9172 000.1416 0014401 102.1997 258.0834 14.90231001204057 NANOSATCBR1 1 40024U 14033Q 18081.57691688 .00000496 00000-0 57909-4 0 9992 2 40024 097.9113 358.5512 0013696 103.9255 256.3486 14.89504783203469 EO-79 1 40025U 14033R 18081.70984170 .00000390 00000-0 47830-4 0 9994 2 40025 97.9077 357.2774 0013873 107.2826 252.9910 14.88659733203923 DTUSAT-2 1 40030U 14033W 18081.31600186 .00000349 00000-0 43747-4 0 9996 2 40030 097.9031 355.6888 0013355 103.9101 256.3601 14.88271438203300 EO-80 1 40032U 14033Y 18081.50472500 .00000366 00000-0 45657-4 0 9997 2 40032 97.9036 355.8807 0013296 103.8041 256.4656 14.88207949203831 ANTELSAT 1 40034U 14033AA 18081.57912195 .00000255 00000-0 45342-4 0 9993 2 40034 097.8239 321.3195 0060149 116.3622 244.3780 14.73879993201399 VELOX-1 1 40057U 14034E 18081.82126606 .00000419 00000-0 66568-4 0 9996 2 40057 98.1941 191.4251 0009661 241.9096 118.1137 14.77368706200896 DAURIA DX 1 1 40071U 14037C 18081.88024972 .00000166 00000-0 28836-4 0 9999 2 40071 98.3602 209.4633 0007192 232.9677 127.0884 14.81133845200228 UKUBE-1 1 40074U 14037F 18081.83315904 .00000433 00000-0 59526-4 0 9992 2 40074 98.3726 214.8004 0003425 224.4684 135.6260 14.83742950200496 HODOYOSHI-1 1 40299U 14070B 18081.79158869 .00000986 00000-0 45141-4 0 9999 2 40299 97.3802 165.0847 0012726 186.9486 287.6989 15.22781523187333 CHUBUSAT-1 1 40300U 14070C 18081.87141093 .00001097 00000-0 51727-4 0 9993 2 40300 97.3690 161.3970 0019388 200.8078 251.1946 15.21441274187155 QSAT-EOS 1 40301U 14070D 18081.82581831 .00002478 00000-0 10296-3 0 9996 2 40301 97.3635 162.3054 0026293 193.2627 306.4629 15.24453845187261 FIREBIRD FU3 1 40377U 15003B 18081.58505366 .00001985 00000-0 85021-4 0 9999 2 40377 099.0968 326.1437 0132583 158.2034 202.4909 15.16854160173188 FIREBIRD FU4 1 40378U 15003C 18081.70640433 .00002170 00000-0 92385-4 0 9997 2 40378 99.0971 326.3427 0132816 157.6817 203.0266 15.16865417173219 GRIFEX 1 40379U 15003D 18081.64450495 .00001600 00000-0 73922-4 0 9991 2 40379 99.1011 322.8264 0139328 169.2606 191.1651 15.14067788173001 NO-84 1 40654U 15025D 18080.34822752 .00010360 00000-0 17639-3 0 02523 2 40654 054.9944 072.6627 0159170 245.5306 112.8900 15.39180711042311 NO-83 1 40655U 15025E 18080.29115453 .00023823 00000-0 27973-3 0 02891 2 40655 054.9800 025.5710 0113126 274.2347 084.5775 15.53906737042605 DEORBITSAIL 1 40719U 15032E 18081.57017036 .00000480 00000-0 76341-4 0 9996 2 40719 097.9546 336.4534 0015947 331.9796 028.0553 14.76362427145392 NUDT-PHONESAT 1 40900U 15049B 18081.80180734 .00002564 00000-0 11878-3 0 9996 2 40900 97.4437 91.0651 0012791 339.0350 21.0359 15.20943913138788 XW-2A 1 40903U 15049E 18081.84051213 .00002438 00000-0 62800-4 0 9994 2 40903 97.3946 115.8067 0013802 349.1114 10.9831 15.40148979140512 XW-2C 1 40906U 15049H 18081.80245865 .00000877 00000-0 50320-4 0 9990 2 40906 97.4605 86.8840 0014320 335.4478 24.6070 15.15069468138411 XW-2D 1 40907U 15049J 18081.82930851 .00000931 00000-0 53012-4 0 9991 2 40907 97.4578 86.6181 0013620 333.4200 26.6332 15.15211638138422 LILACSAT-2 1 40908U 15049K 18081.86529816 .00000459 00000-0 29297-4 0 9994 2 40908 97.4687 86.1218 0015279 333.4136 26.6310 15.13438642138318 XW-2F 1 40910U 15049M 18081.84418069 .00001388 00000-0 74877-4 0 9998 2 40910 97.4584 87.7922 0014234 329.0414 30.9978 15.16344141138373 XW-2B 1 40911U 15049N 18081.84370905 .00000912 00000-0 52042-4 0 9997 2 40911 97.4615 87.1367 0013543 333.9331 26.1218 15.15158904138328 DCBB 1 40912U 15049P 18081.70631625 .00001603 00000-0 80787-4 0 9997 2 40912 97.4520 90.2628 0014323 318.3080 131.5743 15.18538522138543 TW-1C 1 40926U 15051B 18081.79136337 .00010840 00000-0 21173-3 0 9990 2 40926 97.1932 124.5694 0008500 226.9129 183.5683 15.47604834139941 TW-1A 1 40928U 15051D 18081.90147168 .00004328 00000-0 11703-3 0 9991 2 40928 97.1951 117.5761 0010054 276.0881 207.8139 15.38198250139518 IO-86 1 40931U 15052B 18080.18257300 .00000600 00000-0 -54613-5 0 9994 2 40931 5.9999 57.6242 0012712 204.5458 155.4094 14.76567589133976 LQSat 1 40958U 15057A 18081.82842930 .00000039 00000-0 13885-4 0 9999 2 40958 97.9464 156.8407 0016705 253.1983 106.7385 14.73021681132131 AO-85 1 40967U 15058D 18080.30391355 .00000453 00000-0 66632-4 0 02757 2 40967 064.7760 098.0534 0198219 341.2150 018.1679 14.75660003040685 ATHENOXAT-1 1 41168U 15077C 18081.40231808 .00002671 00000-0 11055-3 0 9995 2 41168 14.9878 295.3900 0012395 275.8732 284.8132 15.12558444125219 ChubuSat-2 1 41338U 16012B 18081.53752008 .00000428 00000-0 26812-4 0 9994 2 41338 031.0029 144.1558 0013898 295.3463 064.5733 14.99940431114812 ChubuSat-3 1 41339U 16012C 18081.56217978 .00000463 00000-0 29352-4 0 9991 2 41339 31.0101 142.7205 0014017 301.6670 58.2605 15.00131226114806 Horyu-4 1 41340U 16012D 18081.53482670 .00000641 00000-0 42393-4 0 9991 2 41340 031.0048 138.3155 0014136 314.1506 045.7967 15.00918906114868 OUFTI-1 1 41458U 16025C 18081.84593510 .00002760 00000-0 14666-3 0 9990 2 41458 98.1449 140.0501 0171807 77.3374 284.6978 15.04381666104453 e-st@r-II 1 41459U 16025D 18081.77148312 .00003190 00000-0 16946-3 0 9990 2 41459 98.1462 139.8448 0172659 78.3233 283.7251 15.04140360104432 AAUSAT4 1 41460U 16025E 18081.69633283 .00004084 00000-0 21366-3 0 9994 2 41460 98.1417 140.1408 0164449 75.2821 286.6495 15.05471956104477 LO-87 1 41557U 16033B 18081.80154218 .00001857 00000-0 70309-4 0 9996 2 41557 97.4394 166.1742 0015501 102.2157 258.0820 15.28103845100965 NuSat2 1 41558U 16033C 18081.79981317 .00001860 00000-0 70785-4 0 9995 2 41558 97.4422 166.2570 0014961 101.2481 259.0440 15.27936811100950 Lapan A3 1 41603U 16040E 18081.87578894 .00000296 00000-0 17112-4 0 9992 2 41603 97.4212 144.9191 0013234 175.1798 272.6053 15.19527643 96970 Swayam 1 41607U 16040J 18081.67241550 .00001863 00000-0 84643-4 0 9994 2 41607 97.4225 145.8361 0014118 175.0168 185.1212 15.21944523 96944 Pratham 1 41783U 16059A 18081.75145536 .00000050 00000-0 19118-4 0 9997 2 41783 98.1280 144.6639 0033681 9.3892 350.7933 14.62907593 79325 AlSat 1N 1 41789U 16059G 18081.71305436 .00000111 00000-0 30274-4 0 9990 2 41789 98.1283 145.6740 0028552 2.6958 357.4383 14.64135831 79365 ScatSat 1 41790U 16059H 18081.55504812 .00000007 00000-0 13009-4 0 9994 2 41790 98.2716 130.8659 0018323 1.6531 358.4721 14.50864520 78629 TY-1 1 41844U 16066D 18081.87590602 .00002155 00000-0 94440-4 0 9993 2 41844 97.4067 89.9974 0015552 347.9202 83.2315 15.22988257 75741 Pegasus-1 1 41846U 16066F 18081.58902482 .00000336 00000-0 60943-4 0 9996 2 41846 098.7630 108.2369 0369248 143.8108 218.8681 14.37278506071469 CAS-2T 1 41847U 16066G 18081.54686471 .00000093 00000-0 23988-4 0 9998 2 41847 098.7567 108.5901 0366620 141.7853 220.9942 14.37869118071873 TO-89 1 41932U 98067KU 18081.17853659 .00033401 00000-0 26425-3 0 9994 2 41932 051.6373 067.4474 0002365 213.0761 147.0089 15.71018885067066 AOBA-V3LOX3 1 41935U 98067KX 18081.42682982 .00035985 00000-0 25858-3 0 9992 2 41935 51.6359 63.8176 0001519 209.3265 150.7648 15.73263076 67236 EO-88 1 42017U 17008BX 18081.57510270 .00001987 00000-0 84647-4 0 9993 2 42017 097.4577 147.1212 0005587 338.3227 021.7772 15.24150561060873 HAVELSAT 1 42700U 98067LH 18081.45908383 .00022848 00000-0 21828-3 0 9999 2 42700 51.6369 76.8143 0003185 302.8229 57.2460 15.66628198 48409 SOMP2 1 42701U 98067LJ 18081.59475126 .00024064 00000-0 23547-3 0 9991 2 42701 51.6365 76.9695 0003218 300.6786 59.3893 15.65994186 48405 PHOENIX 1 42706U 98067LP 18081.59101312 .00019162 00000-0 19174-3 0 9993 2 42706 51.6367 76.9492 0000446 90.5706 269.5341 15.65594817 48325 X-CubeSat 1 42707U 98067LQ 18081.46202745 .00026027 00000-0 24531-3 0 9993 2 42707 51.6341 76.7972 0000631 82.8885 277.2183 15.66884640 48302 qbee 1 42708U 98067LR 18081.81685797 .00024955 00000-0 24015-3 0 9990 2 42708 51.6369 75.4410 0000502 89.5026 270.6027 15.66391422 48310 ZA-AeroSat 1 42713U 98067LU 18081.42399039 .00019601 00000-0 20476-3 0 9993 2 42713 51.6359 79.5757 0001235 163.7166 196.3869 15.64488063 47939 LINK 1 42714U 98067LV 18081.86788911 .00042476 00000-0 33502-3 0 9993 2 42714 51.6323 71.9711 0001299 125.3427 234.7692 15.70975974 48189 UPSat 1 42716U 98067LX 18081.43365114 .00032298 00000-0 27646-3 0 9997 2 42716 51.6354 75.1241 0001752 328.7076 31.3816 15.69134123 48126 SpaceCube 1 42717U 98067LY 18081.45762876 .00024853 00000-0 24000-3 0 9995 2 42717 51.6354 77.5408 0001994 314.6450 45.4382 15.66307608 47339 Hoopoe 1 42718U 98067LZ 18081.60228923 .00029862 00000-0 27066-3 0 9993 2 42718 51.6364 75.5101 0001733 320.6774 39.4096 15.67773779 47372 Challenger 1 42721U 98067MA 18081.43884638 .00060028 00000-0 41934-3 0 9998 2 42721 51.6345 72.1050 0001892 287.2616 72.8176 15.73695872 47105 NJUST-1 1 42722U 98067MB 18081.82141879 .00017359 00000-0 18715-3 0 9995 2 42722 51.6369 78.4883 0004456 273.3297 86.7188 15.63773224 47053 UNSW-EC0 1 42723U 98067MC 18081.56595574 .00029543 00000-0 26472-3 0 9999 2 42723 51.6377 76.0342 0003189 277.3909 82.6726 15.68058914 47042 DUTHsat 1 42724U 98067MD 18081.82940627 .00050926 00000-0 37164-3 0 9991 2 42724 51.6341 70.9882 0001674 298.5867 61.4963 15.72741045 47059 LO-90 1 42725U 98067ME 18081.84697273 .00025420 00000-0 25508-3 0 9990 2 42725 51.6368 77.1584 0003259 279.0169 81.0457 15.65326103 46979 nSIGHT1 1 42726U 98067MF 18081.43240131 .00010791 00000-0 13664-3 0 9998 2 42726 51.6388 84.1715 0004579 273.6964 86.3505 15.60065759 46856 QBITO 1 42728U 98067MH 18081.55395814 .00023481 00000-0 22670-3 0 9999 2 42728 51.6388 77.4865 0001238 308.6514 51.4371 15.66350131 46758 Aalto-2 1 42729U 98067MJ 18081.41740396 .00025743 00000-0 24651-3 0 9998 2 42729 51.6366 78.0400 0001203 308.6552 51.4336 15.66496101 46749 SUSat 1 42730U 98067MK 18081.79336539 .00024503 00000-0 24222-3 0 9998 2 42730 51.6364 76.7908 0001304 295.9919 64.0942 15.65730059 46783 i-INSPIRE II 1 42731U 98067ML 18081.52399682 .00029945 00000-0 26235-3 0 9999 2 42731 51.6355 75.7069 0003667 202.0897 157.9943 15.68602555 46829 PolyITAN-2-SAU 1 42732U 98067MM 18081.45738751 .00026422 00000-0 25023-3 0 9997 2 42732 51.6360 77.5299 0004083 203.0222 157.0591 15.66750287 46797 SNUSAT-1 1 42733U 98067MN 18081.41154575 .00023794 00000-0 23514-3 0 9992 2 42733 51.6363 78.7324 0004316 208.7595 151.3163 15.65749390 46779 ExAlta-1 1 42734U 98067MP 18081.59162678 .00032552 00000-0 28364-3 0 9995 2 42734 51.6340 75.4007 0004213 241.0280 119.0295 15.68687951 46789 Aoxiang-1 1 42735U 98067MQ 18081.86521857 .00019198 00000-0 20456-3 0 9999 2 42735 51.6361 78.0154 0004857 269.1555 90.8884 15.63991087 48195 BeEagleSat 1 42736U 98067MR 18081.34926325 .00020901 00000-0 21391-3 0 9995 2 42736 51.6359 79.8150 0004512 266.7765 93.2714 15.64953915 46817 Atlantis 1 42737U 98067MS 18081.85768388 .00868338 40908-3 11132-2 0 9994 2 42737 51.6197 56.6151 0003801 149.6689 210.4544 16.06685680 47055 CAS-4B 1 42759U 17034B 18081.77777597 .00000463 00000-0 42193-4 0 9992 2 42759 43.0185 197.6127 0009952 287.9162 201.8205 15.09224381 42394 CAS-4A 1 42761U 17034D 18081.76324367 .00000426 00000-0 39845-4 0 9996 2 42761 43.0191 197.5193 0010184 287.9568 198.4890 15.09300001 42389 UCLSat 1 42765U 17036A 18081.80495236 .00001646 00000-0 75905-4 0 9993 2 42765 97.4114 143.0106 0012525 27.1226 333.0661 15.21610463 41570 NIUSat 1 42766U 17036B 18081.58210469 .00001317 00000-0 63786-4 0 9991 2 42766 097.4117 142.2525 0016295 013.1952 346.9706 15.20195987041378 LituanicaSAT 2 1 42768U 17036D 18081.30470952 .00002554 00000-0 11800-3 0 9991 2 42768 097.4122 142.1734 0016092 017.1078 343.0696 15.20988288041353 Aalto 1 1 42775U 17036L 18081.70006583 .00001086 00000-0 52603-4 0 9994 2 42775 97.4111 142.5406 0014572 14.0909 346.0730 15.20583921 41356 URSA MAIOR 1 42776U 17036M 18081.16432332 .00001202 00000-0 57800-4 0 9994 2 42776 097.4117 142.0481 0014455 016.2716 343.8980 15.20650842041271 Max Valier Sat 1 42778U 17036P 18081.61534767 .00001321 00000-0 62403-4 0 9998 2 42778 097.4139 142.7284 0013097 020.8670 339.3097 15.21110345041343 Pegasus 1 42784U 17036V 18081.30576498 .00001543 00000-0 71676-4 0 9996 2 42784 097.4118 142.4655 0013073 028.4700 331.7247 15.21431934041307 NUDATSat 1 42787U 17036Y 18081.71426616 .00001994 00000-0 90484-4 0 9998 2 42787 97.4118 142.9937 0012548 27.6102 332.5798 15.21907230 41218 SUCHAI 1 1 42788U 17036Z 18081.21147409 .00001641 00000-0 75552-4 0 9992 2 42788 097.4113 142.4372 0012686 029.1817 331.0125 15.21661162041360 SKCUBE 1 42789U 17036AA 18081.60381957 .00001705 00000-0 78441-4 0 9995 2 42789 097.4117 142.8244 0012496 027.7956 332.3945 15.21643062041345 VZLUSAT 1 1 42790U 17036AB 18081.11324075 .00002327 00000-0 10501-3 0 9994 2 42790 097.4115 142.4095 0012180 030.1707 330.0229 15.21934021041277 VENTA 1 1 42791U 17036AC 18081.39135381 .00001600 00000-0 73655-4 0 9998 2 42791 097.4116 142.6481 0012165 029.3807 330.8110 15.21708369041309 Robusta 1B 1 42792U 17036AD 18081.38314030 .00001747 00000-0 79979-4 0 9995 2 42792 97.4115 142.6527 0012116 29.8272 330.3652 15.21780947 41327 D-SAT 1 42794U 17036AF 18081.39445619 .00000307 00000-0 32450-4 0 9990 2 42794 097.6029 139.2831 0126490 210.4270 148.9567 14.90804465040797 BIRD-J 1 42820U 98067MU 18081.43499822 .00019539 00000-0 20740-3 0 9998 2 42820 51.6360 81.1421 0001960 164.6214 195.4840 15.64083094 40269 BIRD-G 1 42821U 98067MV 18081.39916165 .00018746 00000-0 20193-3 0 9999 2 42821 51.6361 81.6531 0001881 169.2054 190.8981 15.63738410 40233 BIRD-M 1 42822U 98067MW 18081.83873145 .00019809 00000-0 21170-3 0 9996 2 42822 51.6361 79.3404 0001851 173.6037 186.4982 15.63898793 40305 BIRD-B 1 42823U 98067MX 18081.45542420 .00019798 00000-0 21120-3 0 9996 2 42823 51.6368 81.2936 0003879 217.1749 142.8978 15.63941633 40247 BIRD-N 1 42824U 98067MY 18081.40638469 .00019424 00000-0 20849-3 0 9994 2 42824 051.6374 081.7269 0003814 216.7548 143.3186 15.63798758040256 TechnoSat 1 42829U 17042E 18081.77994888 .00000105 00000-0 16115-4 0 9991 2 42829 97.6036 347.3550 0015532 123.4299 236.8408 14.90783852 37469 TOMSK-TPU 120 1 42910U 98067MZ 18081.81774357 .00015776 00000-0 18543-3 0 9996 2 42910 51.6357 82.1856 0004959 246.9029 113.1442 15.61619260 33878 TANYUSHA 1 1 42911U 98067NA 18081.84559630 .00017187 00000-0 19680-3 0 9996 2 42911 51.6367 81.6523 0004416 241.2031 118.8520 15.62227808 33866 TANYUSHA 2 1 42912U 98067NB 18081.56504804 .00015627 00000-0 18248-3 0 9995 2 42912 51.6370 83.4939 0003920 256.6047 103.4510 15.61802246 33838 SFERA 2 1 42913U 98067NC 18081.58795694 .00030677 00000-0 29467-3 0 9994 2 42913 051.6352 079.8940 0002134 281.0021 079.0734 15.66316483033889 TNS 0-2 1 42914U 98067ND 18081.59510059 .00015065 00000-0 17899-3 0 9996 2 42914 051.6369 083.7276 0003930 248.2882 111.7694 15.61383426033806 QIKCOM-1 1 42983U 98067NF 18081.58159932 .00004255 00000-0 67804-4 0 9991 2 42983 51.6414 89.4701 0003404 223.9014 225.0231 15.55622079 22731 AO-91 1 43017U 17073E 18081.35429848 .00000546 00000-0 48644-4 0 9999 2 43017 097.7025 016.1416 0259820 193.9665 165.4267 14.77947221018285 EcAMSat 1 43019U 98067NG 18081.48550567 .00005708 00000-0 87002-4 0 9996 2 43019 51.6393 89.7689 0004508 203.8689 156.2095 15.56112009105044 PICSAT 1 43132U 18004X 18081.61879660 .00001772 00000-0 79756-4 0 9992 2 43132 097.5441 144.0330 0011176 048.6029 311.6166 15.22390565010547 AO-92 1 43137U 18004AC 18081.61250301 .00001387 00000-0 62898-4 0 9993 2 43137 097.5439 144.0399 0010756 050.4304 309.7880 15.22507909010547 TianYi 2 1 43155U 18008A 18081.85250447 .00000804 00000-0 52634-4 0 9994 2 43155 97.5294 157.7738 0019797 82.2538 59.9607 15.10402935 9459 TianYi 6 1 43158U 18008D 18081.81991277 .00001531 00000-0 99013-4 0 9996 2 43158 97.5288 157.6664 0015292 75.7067 63.1017 15.09580447 9424 S-Net G 1 43186U 18014G 18081.69615441 .00000526 00000-0 51504-4 0 9992 2 43186 97.7295 351.2581 0012238 81.0717 279.1904 14.96402596 7384 S-Net H 1 43187U 18014H 18080.89373219 -.00000101 00000-0 -37555-5 0 9990 2 43187 97.7295 350.4626 0012304 86.0328 274.2323 14.96393547 7266 S-Net J 1 43188U 18014J 18081.69609952 .00000593 00000-0 57365-4 0 9999 2 43188 97.7294 351.2574 0012407 80.2547 280.0091 14.96404854 7384 S-Net K 1 43189U 18014K 18081.62928589 .00000680 00000-0 65089-4 0 9992 2 43189 97.7273 351.1892 0012473 81.3744 279.0185 14.96404417 5923 FMN 1 1 43192U 18015A 18081.88099204 .00003283 00000-0 14432-3 0 9995 2 43192 97.3420 212.6464 0018874 85.9604 274.3790 15.22431537 7384 Shaonian Xing 1 43199U 18015H 18081.58661353 .00002659 00000-0 11418-3 0 9996 2 43199 097.3181 212.2913 0019294 099.2861 261.0550 15.23396738007358 /EX